TimeCST,TemperatureF,Dew PointF,Humidity,Sea Level PressureIn,VisibilityMPH,Wind Direction,Wind SpeedMPH,Gust SpeedMPH,PrecipitationIn,Events,Conditions,WindDirDegrees,DateUTC
12:53 AM,37.9,26.1,62,30.29,10.0,Calm,Calm,-,N/A,,Clear,0,2013-02-20 06:53:00
1:53 AM,39.0,27.0,62,30.29,10.0,ENE,3.5,-,N/A,,Clear,70,2013-02-20 07:53:00
2:53 AM,37.9,28.9,70,30.27,10.0,NE,4.6,-,N/A,,Clear,50,2013-02-20 08:53:00
3:53 AM,39.0,26.1,60,30.25,10.0,ENE,5.8,-,N/A,,Clear,60,2013-02-20 09:53:00
4:53 AM,37.9,28.0,68,30.27,10.0,East,3.5,-,N/A,,Scattered Clouds,80,2013-02-20 10:53:00
5:53 AM,37.9,27.0,65,30.29,10.0,ENE,6.9,-,N/A,,Overcast,70,2013-02-20 11:53:00
6:53 AM,39.0,26.1,60,30.29,10.0,East,9.2,-,N/A,,Overcast,80,2013-02-20 12:53:00
7:53 AM,39.0,24.1,55,30.30,10.0,ENE,5.8,-,N/A,,Overcast,70,2013-02-20 13:53:00
8:53 AM,39.0,24.1,55,30.30,7.0,East,6.9,-,N/A,,Overcast,100,2013-02-20 14:53:00
9:01 AM,37.4,26.6,65,30.28,2.0,East,9.2,-,0.00,Snow,Light Snow,90,2013-02-20 15:01:00
9:43 AM,33.8,30.2,87,30.30,1.0,East,6.9,-,0.01,Snow,Light Snow,80,2013-02-20 15:43:00
9:53 AM,33.1,30.0,89,30.30,0.5,East,6.9,-,0.02,Fog-Snow,Snow,80,2013-02-20 15:53:00
10:02 AM,33.8,30.2,87,30.30,0.2,ENE,8.1,-,N/A,Fog-Snow,Heavy Snow,70,2013-02-20 16:02:00
10:53 AM,32.0,30.0,92,30.32,0.2,ESE,9.2,-,0.11,Fog-Snow,Heavy Snow,110,2013-02-20 16:53:00
10:55 AM,32.0,30.2,93,30.31,0.2,ESE,8.1,-,0.01,Fog-Snow,Heavy Snow,110,2013-02-20 16:55:00
11:07 AM,32.0,28.4,87,30.32,0.2,East,9.2,-,0.06,Fog-Snow,Snow,80,2013-02-20 17:07:00
11:15 AM,32.0,28.4,87,30.32,0.5,East,8.1,-,0.07,Fog-Snow,Snow,80,2013-02-20 17:15:00
11:51 AM,32.0,28.4,87,30.29,0.5,East,11.5,-,0.12,Fog-Snow,Snow,100,2013-02-20 17:51:00
11:53 AM,32.0,28.9,88,30.30,0.8,East,12.7,-,0.12,Snow,Light Snow,90,2013-02-20 17:53:00
12:34 PM,33.8,28.4,81,30.25,2.0,ENE,13.8,-,0.01,Snow,Light Snow,70,2013-02-20 18:34:00
12:51 PM,33.8,28.4,81,30.24,1.8,East,15.0,-,0.02,Snow,Light Snow,80,2013-02-20 18:51:00
12:53 PM,33.1,28.9,85,30.25,1.8,ENE,16.1,-,0.02,Snow,Light Snow,70,2013-02-20 18:53:00
1:03 PM,33.8,28.4,81,30.24,2.5,East,11.5,-,0.01,Snow,Light Snow,90,2013-02-20 19:03:00
1:10 PM,33.8,28.4,81,30.23,4.0,East,10.4,-,0.01,Snow,Light Snow,80,2013-02-20 19:10:00
1:29 PM,33.8,28.4,81,30.21,1.0,East,9.2,-,0.03,Snow,Light Snow,90,2013-02-20 19:29:00
1:50 PM,33.8,28.4,81,30.21,2.5,East,10.4,-,0.04,Snow,Light Snow,90,2013-02-20 19:50:00
1:53 PM,33.1,28.9,85,30.22,2.5,East,9.2,-,0.04,Snow,Light Snow,90,2013-02-20 19:53:00
2:00 PM,33.8,28.4,81,30.19,2.5,East,10.4,-,0.01,Snow,Light Snow,90,2013-02-20 20:00:00
2:02 PM,33.8,28.4,81,30.19,1.8,East,11.5,-,0.01,Snow,Light Snow,100,2013-02-20 20:02:00
2:06 PM,32.0,28.4,87,30.19,0.8,East,9.2,-,0.02,Snow,Light Snow,90,2013-02-20 20:06:00
2:21 PM,32.0,30.2,93,30.19,0.2,East,8.1,-,0.07,Fog-Snow,Heavy Snow,100,2013-02-20 20:21:00
2:28 PM,32.0,28.4,87,30.19,0.5,East,8.1,-,0.11,Fog-Snow,Snow,100,2013-02-20 20:28:00
2:45 PM,32.0,28.4,87,30.18,1.0,East,11.5,-,0.14,Snow,Light Snow,80,2013-02-20 20:45:00
2:53 PM,32.0,28.9,88,30.19,1.0,ENE,12.7,-,0.15,Snow,Light Snow,70,2013-02-20 20:53:00
2:58 PM,32.0,28.4,87,30.18,0.8,East,13.8,-,0.00,Snow,Light Snow,80,2013-02-20 20:58:00
3:08 PM,32.0,28.4,87,30.17,1.2,ENE,12.7,-,0.04,Snow,Light Snow,60,2013-02-20 21:08:00
3:15 PM,32.0,28.4,87,30.17,1.8,ENE,13.8,-,0.04,Snow,Light Snow,70,2013-02-20 21:15:00
3:19 PM,32.0,28.4,87,30.17,2.0,ENE,13.8,-,0.05,Snow,Light Snow,70,2013-02-20 21:19:00
3:22 PM,32.0,28.4,87,30.17,3.0,East,11.5,-,0.06,Snow,Light Snow,80,2013-02-20 21:22:00
3:39 PM,32.0,28.4,87,30.16,1.8,East,11.5,-,0.08,Snow,Light Snow,80,2013-02-20 21:39:00
3:53 PM,32.0,28.9,88,30.17,2.0,East,13.8,-,0.13,Snow,Light Snow,80,2013-02-20 21:53:00
4:02 PM,32.0,28.4,87,30.16,4.0,East,11.5,-,0.01,,Overcast,90,2013-02-20 22:02:00
4:17 PM,32.0,28.4,87,30.15,2.5,East,12.7,20.7,0.03,Snow,Light Snow,90,2013-02-20 22:17:00
4:24 PM,32.0,28.4,87,30.16,1.2,East,12.7,-,0.05,Snow,Light Snow,90,2013-02-20 22:24:00
4:38 PM,32.0,28.4,87,30.16,0.8,East,12.7,-,0.08,Snow,Light Snow,80,2013-02-20 22:38:00
4:46 PM,32.0,28.4,87,30.16,1.5,East,11.5,-,0.10,Snow,Light Snow,90,2013-02-20 22:46:00
4:53 PM,32.0,28.9,88,30.16,2.5,East,11.5,-,0.11,Snow,Light Snow,80,2013-02-20 22:53:00
5:01 PM,32.0,28.4,87,30.14,4.0,East,11.5,-,0.00,Snow,Light Snow,80,2013-02-20 23:01:00
5:17 PM,32.0,28.4,87,30.15,5.0,East,9.2,-,0.03,Rain,Light Freezing Rain,90,2013-02-20 23:17:00
5:22 PM,32.0,28.4,87,30.14,4.0,East,11.5,-,0.03,Rain,Light Freezing Rain,90,2013-02-20 23:22:00
5:53 PM,32.0,28.9,88,30.14,6.0,East,10.4,-,0.04,Rain,Light Freezing Rain,90,2013-02-20 23:53:00
6:18 PM,33.8,30.2,87,30.13,9.0,East,9.2,-,0.01,Rain,Light Rain,100,2013-02-21 00:18:00
6:26 PM,33.8,30.2,87,30.13,6.0,East,9.2,-,0.01,Rain,Light Freezing Rain,100,2013-02-21 00:26:00
6:37 PM,33.8,30.2,87,30.13,6.0,East,9.2,-,0.03,Rain,Light Freezing Rain,90,2013-02-21 00:37:00
6:53 PM,33.1,28.9,85,30.13,9.0,East,15.0,18.4,0.03,Rain,Light Freezing Rain,100,2013-02-21 00:53:00
7:08 PM,33.8,28.4,81,30.10,10.0,East,13.8,21.9,0.01,Rain,Light Rain,100,2013-02-21 01:08:00
7:53 PM,33.1,28.0,82,30.14,10.0,East,11.5,-,0.01,,Overcast,100,2013-02-21 01:53:00
8:14 PM,33.8,28.4,81,30.12,5.0,East,12.7,18.4,0.01,Rain,Light Freezing Rain,100,2013-02-21 02:14:00
8:42 PM,33.8,28.4,81,30.11,6.0,East,13.8,-,0.02,Rain,Light Freezing Rain,100,2013-02-21 02:42:00
8:45 PM,33.8,28.4,81,30.11,6.0,East,12.7,21.9,0.03,Rain,Light Freezing Rain,90,2013-02-21 02:45:00
8:53 PM,33.1,28.0,82,30.13,8.0,East,13.8,19.6,0.03,Rain,Light Freezing Rain,90,2013-02-21 02:53:00
9:22 PM,32.0,28.4,87,30.11,4.0,East,11.5,20.7,0.02,Rain,Light Freezing Rain,90,2013-02-21 03:22:00
9:28 PM,32.0,28.4,87,30.11,5.0,East,8.1,17.3,0.04,Rain,Light Freezing Rain,90,2013-02-21 03:28:00
9:39 PM,32.0,28.4,87,30.11,4.0,East,9.2,-,0.06,Rain,Light Freezing Rain,100,2013-02-21 03:39:00
9:48 PM,32.0,28.4,87,30.12,6.0,East,8.1,-,0.06,Rain,Light Freezing Rain,80,2013-02-21 03:48:00
9:53 PM,32.0,28.4,87,30.10,7.0,East,15.0,-,N/A,Rain,Light Freezing Rain,80,2013-02-21 03:53:00
10:49 PM,32.0,28.4,87,30.10,8.0,East,15.0,-,0.02,Rain,Light Freezing Rain,80,2013-02-21 04:49:00
10:53 PM,32.0,28.0,85,30.10,9.0,East,15.0,23.0,0.02,Rain,Light Freezing Rain,80,2013-02-21 04:53:00
11:19 PM,32.0,28.4,87,30.09,10.0,East,16.1,-,0.00,,Overcast,80,2013-02-21 05:19:00
11:53 PM,32.0,27.0,82,30.08,10.0,East,18.4,24.2,0.00,,Overcast,80,2013-02-21 05:53:00